Location: Newark
(48.5667°N, 12.8167°E)
Time: 16:49:03
(UTC+00:00)

CAS-4B - Pass Details

Date: 22 November 2019
Orbit: 528 x 546 km, 43.0° (Epoch: 09 December)

Event Time Altitude Azimuth Distance (km) Brightness Sun altitude
Exits shadow 05:01:19 - 223° (SW) 2,468 ? -13.8°
Reaches altitude 10° 05:03:19 10° 211° (SSW) 1,790 ? -13.5°
Maximum altitude 05:06:33 23° 158° (SSE) 1,179 ? -13.0°
Drops below altitude 10° 05:09:46 10° 106° (ESE) 1,786 ? -12.5°
Sets 05:12:20 0° 92° (E) 2,675 ? -12.1°
